Location: Peebles
(55.6412°N, 3.1714°W)
Time: 17:15:15
(UTC+01:00)

USA 238 DEB - Pass Details

Date: 23 January 2022
Orbit: 969 x 1243 km, 63.4° (Epoch: 04 May)

Event Time Altitude Azimuth Distance (km) Brightness Sun altitude
Rises 23:23:45 0° 307° (NW) 3,890 7.1 -51.9°
Reaches altitude 10° 23:26:20 10° 308° (NW) 2,969 6.4 -52.0°
Enters shadow 23:26:25 10° 308° (NW) 2,942 6.4 -52.0°
